WML52 MYAM-KSUA

Flight info

Callsign WML52
Flight time 0h 45m
Altitude 16000
Route SURFN DCT ANGEE
Aircraft C525/L-SDFGRWY/SB1

Departure

Time 2026-05-04 01:21
Airport Leonard M. Thompson International Airport (MYAM)

Arrival

Time 2026-05-04 02:07
Airport Witham Field (KSUA)
Time Latitude Longitude Altitude Speed Heading
2026-05-04 01:03 26.51343 -77.08183 14 ft 0 kts 270°
2026-05-04 01:16 26.51343 -77.08186 14 ft 1 kts 269°
2026-05-04 01:16 26.51321 -77.08197 14 ft 8 kts 178°
2026-05-04 01:16 26.51254 -77.08198 14 ft 14 kts 183°
2026-05-04 01:17 26.51158 -77.08209 14 ft 11 kts 200°
2026-05-04 01:17 26.51143 -77.08318 14 ft 17 kts 270°
2026-05-04 01:17 26.51140 -77.08453 13 ft 16 kts 268°
2026-05-04 01:17 26.51137 -77.08580 12 ft 16 kts 269°
2026-05-04 01:18 26.51133 -77.08705 11 ft 16 kts 268°
2026-05-04 01:18 26.51130 -77.08831 9 ft 16 kts 267°
2026-05-04 01:18 26.51127 -77.08955 7 ft 15 kts 267°
2026-05-04 01:18 26.51123 -77.09077 6 ft 15 kts 269°
2026-05-04 01:19 26.51120 -77.09190 6 ft 13 kts 266°
2026-05-04 01:19 26.51118 -77.09290 7 ft 11 kts 270°
2026-05-04 01:19 26.51115 -77.09370 9 ft 8 kts 270°
2026-05-04 01:19 26.51114 -77.09429 10 ft 6 kts 268°
2026-05-04 01:20 26.51094 -77.09475 10 ft 8 kts 206°
2026-05-04 01:20 26.51033 -77.09476 9 ft 9 kts 175°
2026-05-04 01:20 26.50990 -77.09460 7 ft 1 kts 109°
2026-05-04 01:20 26.50990 -77.09442 7 ft 5 kts 89°
2026-05-04 01:21 26.50995 -77.09225 5 ft 62 kts 88°
2026-05-04 01:21 26.51010 -77.08518 82 ft 109 kts 87°
2026-05-04 01:21 26.51022 -77.07606 367 ft 130 kts 86°
2026-05-04 01:21 26.51273 -77.06530 656 ft 158 kts 60°
2026-05-04 01:22 26.52146 -77.05763 949 ft 172 kts 21°
2026-05-04 01:22 26.53371 -77.05936 1211 ft 189 kts 328°
2026-05-04 01:22 26.54048 -77.07222 1573 ft 197 kts 291°
2026-05-04 01:22 26.54451 -77.08652 2026 ft 193 kts 290°
2026-05-04 01:23 26.54898 -77.10138 2515 ft 211 kts 289°
2026-05-04 01:23 26.55357 -77.11620 3523 ft 202 kts 289°
2026-05-04 01:23 26.55826 -77.13086 4351 ft 201 kts 289°
2026-05-04 01:23 26.56301 -77.14526 5179 ft 199 kts 289°
2026-05-04 01:24 26.56786 -77.15959 5893 ft 202 kts 289°
2026-05-04 01:24 26.57289 -77.17404 6661 ft 201 kts 289°
2026-05-04 01:24 26.57801 -77.18835 7401 ft 201 kts 289°
2026-05-04 01:24 26.58333 -77.20288 8038 ft 205 kts 290°
2026-05-04 01:25 26.58884 -77.21758 8720 ft 206 kts 290°
2026-05-04 01:25 26.59452 -77.23241 9329 ft 210 kts 290°
2026-05-04 01:25 26.60031 -77.24717 9970 ft 211 kts 291°
2026-05-04 01:25 26.60632 -77.26215 10590 ft 212 kts 291°
2026-05-04 01:26 26.61241 -77.27702 11144 ft 215 kts 291°
2026-05-04 01:26 26.61874 -77.29221 11698 ft 218 kts 291°
2026-05-04 01:26 26.62523 -77.30746 12267 ft 219 kts 291°
2026-05-04 01:26 26.63180 -77.32259 12812 ft 220 kts 292°
2026-05-04 01:27 26.63860 -77.33801 13354 ft 222 kts 292°
2026-05-04 01:27 26.64557 -77.35351 13867 ft 223 kts 292°
2026-05-04 01:27 26.65259 -77.36884 14370 ft 225 kts 293°
2026-05-04 01:27 26.65990 -77.38454 14872 ft 226 kts 293°
2026-05-04 01:28 26.66724 -77.40003 15316 ft 229 kts 293°
2026-05-04 01:28 26.67479 -77.41572 15800 ft 230 kts 294°
2026-05-04 01:28 26.68262 -77.43182 15983 ft 244 kts 294°
2026-05-04 01:28 26.69093 -77.44917 16010 ft 260 kts 291°
2026-05-04 01:29 26.69532 -77.46897 16031 ft 270 kts 278°
2026-05-04 01:29 26.70057 -77.48986 16016 ft 280 kts 284°
2026-05-04 01:29 26.70640 -77.51095 16015 ft 287 kts 284°
2026-05-04 01:29 26.71234 -77.53252 16012 ft 293 kts 284°
2026-05-04 01:30 26.71824 -77.55441 16006 ft 297 kts 283°
2026-05-04 01:30 26.72415 -77.57676 16007 ft 301 kts 283°
2026-05-04 01:30 26.72999 -77.59923 16004 ft 303 kts 283°
2026-05-04 01:30 26.73591 -77.62228 16003 ft 305 kts 283°
2026-05-04 01:31 26.74171 -77.64509 16002 ft 307 kts 283°
2026-05-04 01:31 26.74755 -77.66824 16002 ft 309 kts 282°
2026-05-04 01:31 26.75331 -77.69128 15998 ft 309 kts 282°
2026-05-04 01:31 26.75911 -77.71453 16002 ft 310 kts 282°
2026-05-04 01:32 26.76488 -77.73767 16002 ft 310 kts 282°
2026-05-04 01:32 26.77069 -77.76106 16008 ft 311 kts 282°
2026-05-04 01:32 26.77644 -77.78426 16008 ft 311 kts 282°
2026-05-04 01:32 26.78011 -77.80795 16009 ft 309 kts 274°
2026-05-04 01:33 26.78177 -77.83209 16006 ft 309 kts 271°
2026-05-04 01:33 26.78269 -77.85603 16005 ft 309 kts 270°
2026-05-04 01:33 26.78332 -77.88013 16006 ft 309 kts 269°
2026-05-04 01:33 26.78385 -77.90427 16004 ft 309 kts 269°
2026-05-04 01:34 26.78433 -77.92826 16002 ft 308 kts 269°
2026-05-04 01:34 26.78480 -77.95213 16007 ft 308 kts 269°
2026-05-04 01:34 26.78527 -77.97638 15999 ft 309 kts 269°
2026-05-04 01:34 26.78571 -78.00013 16004 ft 309 kts 269°
2026-05-04 01:35 26.78620 -78.02426 16008 ft 309 kts 269°
2026-05-04 01:35 26.78669 -78.04808 15999 ft 309 kts 269°
2026-05-04 01:35 26.78721 -78.07220 16003 ft 309 kts 269°
2026-05-04 01:35 26.78771 -78.09599 16008 ft 308 kts 269°
2026-05-04 01:36 26.78821 -78.12013 16009 ft 308 kts 270°
2026-05-04 01:36 26.78872 -78.14397 16001 ft 308 kts 270°
2026-05-04 01:36 26.78921 -78.16798 16005 ft 308 kts 269°
2026-05-04 01:36 26.79043 -78.19196 15990 ft 311 kts 277°
2026-05-04 01:37 26.79724 -78.21468 16013 ft 314 kts 290°
2026-05-04 01:37 26.80528 -78.23752 16004 ft 313 kts 284°
2026-05-04 01:37 26.81198 -78.26081 16011 ft 316 kts 284°
2026-05-04 01:37 26.81860 -78.28405 16008 ft 318 kts 284°
2026-05-04 01:38 26.82538 -78.30776 16007 ft 320 kts 285°
2026-05-04 01:38 26.83221 -78.33146 16002 ft 322 kts 285°
2026-05-04 01:38 26.83917 -78.35545 16001 ft 323 kts 285°
2026-05-04 01:38 26.84614 -78.37937 16008 ft 323 kts 285°
2026-05-04 01:39 26.85304 -78.40298 16006 ft 324 kts 285°
2026-05-04 01:39 26.86011 -78.42709 16000 ft 325 kts 285°
2026-05-04 01:39 26.86711 -78.45098 16007 ft 325 kts 285°
2026-05-04 01:39 26.87417 -78.47495 16015 ft 325 kts 285°
2026-05-04 01:40 26.88125 -78.49904 16009 ft 326 kts 285°
2026-05-04 01:40 26.88838 -78.52327 15999 ft 326 kts 285°
2026-05-04 01:40 26.89548 -78.54748 16001 ft 325 kts 285°
2026-05-04 01:40 26.90246 -78.57129 16014 ft 324 kts 285°
2026-05-04 01:41 26.90965 -78.59558 16016 ft 324 kts 285°
2026-05-04 01:41 26.91671 -78.61969 16008 ft 325 kts 285°
2026-05-04 01:41 26.92373 -78.64356 16004 ft 324 kts 285°
2026-05-04 01:41 26.93071 -78.66736 16009 ft 325 kts 285°
2026-05-04 01:42 26.93786 -78.69170 16007 ft 325 kts 285°
2026-05-04 01:42 26.94471 -78.71513 16010 ft 325 kts 285°
2026-05-04 01:42 26.95160 -78.73865 15976 ft 325 kts 284°
2026-05-04 01:42 26.95824 -78.76129 15820 ft 317 kts 285°
2026-05-04 01:43 26.96477 -78.78352 15673 ft 310 kts 284°
2026-05-04 01:43 26.97067 -78.80364 15536 ft 305 kts 284°
2026-05-04 01:43 26.97734 -78.82657 15389 ft 300 kts 284°
2026-05-04 01:43 26.98393 -78.84937 15260 ft 296 kts 285°
2026-05-04 01:44 26.99040 -78.87131 15115 ft 293 kts 285°
2026-05-04 01:44 26.99671 -78.89295 14951 ft 292 kts 284°
2026-05-04 01:44 27.00292 -78.91412 14804 ft 290 kts 283°
2026-05-04 01:44 27.00813 -78.93205 14664 ft 289 kts 284°
2026-05-04 01:45 27.01509 -78.95606 14479 ft 288 kts 285°
2026-05-04 01:45 27.02121 -78.97685 14353 ft 286 kts 283°
2026-05-04 01:45 27.03343 -79.01906 14062 ft 284 kts 285°
2026-05-04 01:46 27.03949 -79.04034 13924 ft 283 kts 283°
2026-05-04 01:46 27.04568 -79.06145 13783 ft 283 kts 284°
2026-05-04 01:46 27.05183 -79.08257 13552 ft 286 kts 285°
2026-05-04 01:46 27.05809 -79.10414 13264 ft 289 kts 284°
2026-05-04 01:47 27.06426 -79.12553 13003 ft 293 kts 286°
2026-05-04 01:47 27.07058 -79.14749 12726 ft 295 kts 284°
2026-05-04 01:47 27.07691 -79.16925 12446 ft 298 kts 285°
2026-05-04 01:47 27.08337 -79.19156 12157 ft 299 kts 285°
2026-05-04 01:48 27.08981 -79.21381 11862 ft 301 kts 285°
2026-05-04 01:48 27.09628 -79.23624 11573 ft 302 kts 285°
2026-05-04 01:48 27.10273 -79.25857 11289 ft 302 kts 285°
2026-05-04 01:48 27.10899 -79.28030 11008 ft 302 kts 285°
2026-05-04 01:49 27.11538 -79.30246 10725 ft 302 kts 286°
2026-05-04 01:49 27.12175 -79.32457 10439 ft 302 kts 286°
2026-05-04 01:49 27.12818 -79.34691 10154 ft 297 kts 286°
2026-05-04 01:49 27.13445 -79.36867 9856 ft 288 kts 286°
2026-05-04 01:50 27.14053 -79.38982 9559 ft 282 kts 286°
2026-05-04 01:50 27.14651 -79.41061 9270 ft 277 kts 286°
2026-05-04 01:50 27.15237 -79.43102 8979 ft 273 kts 286°
2026-05-04 01:50 27.15816 -79.45120 8682 ft 270 kts 286°
2026-05-04 01:51 27.16388 -79.47118 8389 ft 269 kts 286°
2026-05-04 01:51 27.16964 -79.49128 8095 ft 267 kts 286°
2026-05-04 01:51 27.17533 -79.51117 7802 ft 266 kts 286°
2026-05-04 01:51 27.18093 -79.53072 7512 ft 266 kts 285°
2026-05-04 01:52 27.18660 -79.55053 7223 ft 265 kts 286°
2026-05-04 01:52 27.19224 -79.57028 6933 ft 265 kts 286°
2026-05-04 01:52 27.19783 -79.58989 6643 ft 265 kts 286°
2026-05-04 01:52 27.20345 -79.60955 6355 ft 265 kts 286°
2026-05-04 01:53 27.20902 -79.62904 6236 ft 259 kts 285°
2026-05-04 01:53 27.21447 -79.64815 6212 ft 251 kts 286°
2026-05-04 01:53 27.21977 -79.66671 6211 ft 244 kts 285°
2026-05-04 01:53 27.22492 -79.68480 6209 ft 240 kts 285°
2026-05-04 01:54 27.22990 -79.70225 6214 ft 236 kts 285°
2026-05-04 01:54 27.23471 -79.71916 6211 ft 233 kts 285°
2026-05-04 01:54 27.23918 -79.73489 6218 ft 231 kts 285°
2026-05-04 01:54 27.24421 -79.75257 6220 ft 229 kts 285°
2026-05-04 01:55 27.24906 -79.76965 6221 ft 228 kts 285°
2026-05-04 01:55 27.25379 -79.78632 6150 ft 231 kts 285°
2026-05-04 01:55 27.25878 -79.80393 5831 ft 243 kts 285°
2026-05-04 01:55 27.26539 -79.82201 5512 ft 254 kts 299°
2026-05-04 01:56 27.27469 -79.83812 5222 ft 261 kts 303°
2026-05-04 01:56 27.28460 -79.85417 4930 ft 266 kts 304°
2026-05-04 01:56 27.29416 -79.86939 4651 ft 270 kts 305°
2026-05-04 01:56 27.30617 -79.88847 4306 ft 275 kts 306°
2026-05-04 01:57 27.31732 -79.90620 4069 ft 275 kts 306°
2026-05-04 01:57 27.32818 -79.92358 4026 ft 269 kts 306°
2026-05-04 01:57 27.33882 -79.94057 4017 ft 263 kts 307°
2026-05-04 01:57 27.34934 -79.95718 4009 ft 258 kts 309°
2026-05-04 01:58 27.36369 -79.96836 4013 ft 249 kts 343°
2026-05-04 01:58 27.38069 -79.96854 4017 ft 243 kts 17°
2026-05-04 01:58 27.39445 -79.95834 4019 ft 239 kts 50°
2026-05-04 01:58 27.40051 -79.94128 4031 ft 238 kts 84°
2026-05-04 01:59 27.39941 -79.92288 4048 ft 236 kts 95°
2026-05-04 01:59 27.39356 -79.90562 4028 ft 240 kts 127°
2026-05-04 01:59 27.37962 -79.89529 4031 ft 244 kts 161°
2026-05-04 01:59 27.36266 -79.89523 4038 ft 247 kts 191°
2026-05-04 02:00 27.34622 -79.90105 4032 ft 248 kts 199°
2026-05-04 02:00 27.33040 -79.90829 4019 ft 240 kts 202°
2026-05-04 02:00 27.31655 -79.91858 4001 ft 243 kts 230°
2026-05-04 02:00 27.30934 -79.93562 4031 ft 243 kts 253°
2026-05-04 02:01 27.30517 -79.95399 4025 ft 244 kts 258°
2026-05-04 02:01 27.30178 -79.97271 4022 ft 246 kts 260°
2026-05-04 02:01 27.29859 -79.99165 4025 ft 246 kts 260°
2026-05-04 02:01 27.29550 -80.01060 4038 ft 246 kts 260°
2026-05-04 02:02 27.29241 -80.02958 4040 ft 246 kts 261°
2026-05-04 02:02 27.28930 -80.04866 4048 ft 247 kts 260°
2026-05-04 02:02 27.28622 -80.06747 4051 ft 247 kts 260°
2026-05-04 02:02 27.28309 -80.08669 3933 ft 249 kts 261°
2026-05-04 02:03 27.27999 -80.10563 3633 ft 248 kts 261°
2026-05-04 02:03 27.27683 -80.12473 3338 ft 248 kts 261°
2026-05-04 02:03 27.27368 -80.14355 3047 ft 249 kts 261°
2026-05-04 02:03 27.27091 -80.15990 2797 ft 249 kts 261°
2026-05-04 02:04 27.26721 -80.18108 2476 ft 250 kts 261°
2026-05-04 02:04 27.26377 -80.20032 2185 ft 251 kts 261°
2026-05-04 02:04 27.26021 -80.21961 1887 ft 251 kts 261°
2026-05-04 02:04 27.25657 -80.23895 1687 ft 246 kts 260°
2026-05-04 02:05 27.25032 -80.25620 1621 ft 230 kts 230°
2026-05-04 02:05 27.23754 -80.26493 1626 ft 204 kts 188°
2026-05-04 02:05 27.22395 -80.26481 1424 ft 193 kts 166°
2026-05-04 02:05 27.21045 -80.26282 1091 ft 198 kts 171°
2026-05-04 02:06 27.19737 -80.25875 730 ft 192 kts 140°
2026-05-04 02:06 27.18931 -80.24721 447 ft 180 kts 115°
2026-05-04 02:06 27.18364 -80.23655 258 ft 139 kts 110°
2026-05-04 02:06 27.18075 -80.22740 22 ft 110 kts 107°
2026-05-04 02:07 27.17864 -80.22098 18 ft 49 kts 115°
2026-05-04 02:07 27.17776 -80.21832 16 ft 27 kts 107°
2026-05-04 02:07 27.17665 -80.21700 15 ft 20 kts 155°
2026-05-04 02:07 27.17604 -80.21714 15 ft 10 kts 288°
2026-05-04 02:08 27.17642 -80.21811 15 ft 17 kts 290°
2026-05-04 02:08 27.17685 -80.21949 16 ft 16 kts 289°
2026-05-04 02:08 27.17721 -80.22066 16 ft 14 kts 291°
2026-05-04 02:08 27.17757 -80.22169 17 ft 13 kts 291°
2026-05-04 02:09 27.17787 -80.22261 18 ft 11 kts 289°
2026-05-04 02:09 27.17814 -80.22340 18 ft 10 kts 300°
2026-05-04 02:09 27.17867 -80.22404 18 ft 10 kts 315°
2026-05-04 02:09 27.17901 -80.22467 18 ft 8 kts 289°
2026-05-04 02:10 27.17919 -80.22530 18 ft 7 kts 285°
2026-05-04 02:10 27.17892 -80.22554 18 ft 5 kts 148°
2026-05-04 02:10 27.17884 -80.22547 18 ft 0 kts 157°
2026-05-04 02:18 27.17874 -80.22527 18 ft 6 kts 99°
2026-05-04 02:18 27.17847 -80.22469 18 ft 10 kts 154°
2026-05-04 02:18 27.17778 -80.22479 18 ft 10 kts 252°
2026-05-04 02:19 27.17780 -80.22500 18 ft 0 kts 285°